COSMOS 1867 COOLANT

Satellite information

Favourite Embed

Satellite Type and Status

DEBRISIN ORBIT

Key statistics

Satellite COSMOS 1867 COOLANT at a glance.

Uptime

14037

Days in orbit

Revolutions

≈ 14.3

Per day

Orbit

LEO

Low Earth Orbit

Inclination

65.0

Latest

Satellite identification and parameters

Extended collection of information and parameters for COSMOS 1867 COOLANT.

Object identification

Identified? True

Debris? False

Object name: COSMOS 1867 COOLANT

International designator: 1987-060AB

Object number (NORAD): 39664

Object ID (CCSDS): 39664

Country: COMMONWEALTH OF INDEPENDENT STATES (CIS)

Current information (Y/N): Y

RCS size: SMALL

Orbital parameters

Period: 100.443 minutes

Inclination: 65.0039 deg

SMA: 7157.694 km

Apoapsis: 789.301 km

Periapsis: 769.818 km

RAAN: 173.434 deg

Eccentricy: 0.00136099

Argument of periapsis: 269.4797 deg

Mean anomaly: 90.4729 deg

Mean motion: 14.33649746 rev/day

Mean motion (dot): 0.00000507 rev/day2

B* drag term: 0.00021838511 1/REarth

Two-line elements (TLE)

Creation date: Dec. 13, 2025, 5:47 p.m.

Reference frame: TEME

Reference center: EARTH

Epoch: Dec. 13, 2025, 6:02 a.m. UTC

TLE line 0: 0 COSMOS 1867 COOLANT

TLE line 1: 1 39664U 87060AB 25347.25164866 .00000507 00000-0 21839-3 0 9996

TLE line 2: 2 39664 65.0039 173.4340 0013610 269.4797 90.4729 14.33649746609902

Live tracking on map

Real-time ground track for satellite COSMOS 1867 COOLANT.

In-orbit conjunctions

A list of the most updated potential collisions computed for object COSMOS 1867 COOLANT.

Target Orbit TCA Probability of collision Miss distance Type
CZ-6A DEB LEO 2025-12-03 23:48:39 0.0003087878 64.0 (m) DEBRIS
SL-8 R/B LEO 2025-11-03 09:41:49 0.01033952 16.0 (m) ROCKET BODY
NOAA 16 DEB SSO 2025-06-19 06:11:15 0.0001258852 470.0 (m) DEBRIS
THORAD AGENA D DEB LEO 2025-05-13 11:24:26 0.0001436302 175.0 (m) DEBRIS

Associated space launch

Nuclear-powered magnetospheric research satellite

COSMOS 1867 COOLANT was lifted into orbit during the mission ‘Tsiklon-2 | Plasma-A 2’, on board a Tsiklon-2 space rocket.

The launch took place on July 10, 1987, 3:35 p.m. from 90.

For more information about the launch, click the button.

Launch to space Tsiklon-2 | Plasma-A 2
Tsiklon-2 | Plasma-A 2

Agency: N/A

Status: Launch Successful

Launch date: July 10, 1987, 3:35 p.m. UTC

Rocket: Tsiklon-2

Launch pad: 90

Location: Baikonur Cosmodrome, Republic of Kazakhstan

...

Latest news about this satellite

There are no fresh news available about this satellite. Check back as we update our databases every day.


Newsletter sign-up

Weekly statistics, charts and insights to help you stay on top of the space industry.